Miscellaneous Local Product
Issued by NWS Hastings, NE

Home | Current Version | Previous Version | Text Only | Print | Product List | Glossary On
Versions: 1 2 3 4 5 6 7 8 9 10 11 12 13 14 15 16 17 18 19 20 21 22 23 24 25 26 27 28 29 30 31 32 33 34 35 36 37 38 39 40 41 42 43 44 45 46 47 48 49 50
000
AXUS43 KGID 262302
MISGRI

GID CWA HOURLY WEATHER ROUNDUP
NATIONAL WEATHER SERVICE HASTINGS NE
600 PM CDT FRI MAY 26 2017

NOTE: "FAIR" INDICATES FEW OR NO CLOUDS BELOW 12,000 FEET WITH NO
SIGNIFICANT WEATHER AND/OR OBSTRUCTIONS TO VISIBILITY.

...SOUTH CENTRAL NEBRASKA...

CITY           SKY/WX    TMP DP  RH WIND       PRES   REMARKS
GRAND ISLAND   SUNNY     77  47  34 NE5       29.85S
HASTINGS       SUNNY     78  48  34 NE10      29.86S
KEARNEY        SUNNY     75  46  35 NW5       29.86S
ORD            SUNNY     74  42  31 NE5       29.85S
YORK           SUNNY     77  46  33 NE7       29.84S
AURORA         SUNNY     78  43  29 NE5       29.84S
LEXINGTON      SUNNY     74  51  44 NE6       29.86S
HOLDREGE       SUNNY     75  44  33 SE7       29.85F
HEBRON         SUNNY     82  45  27 NE3       29.82S

...NEBRASKA PANHANDLE...

CITY           SKY/WX    TMP DP  RH WIND       PRES   REMARKS
CHADRON        LGT RAIN  60  46  59 N3        29.90R
ALLIANCE       LGT RAIN  60  48  64 NW8       29.91R
SCOTTSBLUFF    LGT RAIN  61  49  64 NE16      29.88F
SIDNEY         CLOUDY    66  46  48 SE18G25   29.88F

...WESTERN AND NORTH CENTRAL NEBRASKA...

CITY           SKY/WX    TMP DP  RH WIND       PRES   REMARKS
VALENTINE      SUNNY     72  37  28 NE9       29.87F
AINSWORTH      SUNNY     69  43  38 NW5       29.88F
ONEILL         SUNNY     72  41  33 NW7       29.88S
BROKEN BOW     SUNNY     73  45  36 SE8       29.87S
IMPERIAL       CLOUDY    69  47  45 S10       29.87R
NORTH PLATTE   SUNNY     75  46  35 E8        29.86S
MCCOOK         SUNNY     76  47  35 E10       29.85S

...EASTERN NEBRASKA...

CITY           SKY/WX    TMP DP  RH WIND       PRES   REMARKS
NORFOLK        SUNNY     75  43  31 N10       29.83S
SO SIOUX CITY  SUNNY     77  48  35 NW15      29.81R
TEKAMAH        SUNNY     81  46  29 N12       29.80S
ALBION         SUNNY     75  40  28 N3        29.85F
OMAHA EPPLEY   MOSUNNY   81  49  32 NW8       29.80S
OFFUTT AFB     SUNNY     79  51  36 N7        29.80R
MILLARD        SUNNY     81  53  37 N5        29.81S
LINCOLN        SUNNY     81  50  33 NE9G18    29.82S
NEBRASKA CITY  SUNNY     81  44  26 N12       29.81R
BEATRICE       SUNNY     82  49  32 N7        29.82R
FALLS CITY     MOSUNNY   83  60  45 VRB5      29.77R

...NORTHERN KANSAS...

CITY           SKY/WX    TMP DP  RH WIND       PRES   REMARKS
GOODLAND       SUNNY     73  52  47 SE15G23   29.86F
HILL CITY      SUNNY     79  52  38 SE8       29.85S
NORTON         CLEAR     73  46  38 E8        29.84F
PHILLIPSBURG   SUNNY     81  46  30 E8        29.83F
SMITH CENTER   SUNNY     79  48  34 E6        29.84F
HAYS           SUNNY     78  56  46 E8        29.83F
RUSSELL        SUNNY     78  58  49 E9        29.81F
CONCORDIA      SUNNY     81  54  39 N5        29.82S
SALINA         SUNNY     84  60  44 N7        29.80S
TOPEKA         SUNNY     83  65  54 N5        29.77R



USA.gov is the U.S. government's official web portal to all federal, state and local government web resources and services.